GALAXY 3C (G-3C)

Last updated on Sat Jul 05 2025 00:02:43 GMT+0000 (Coordinated Universal Time)

1 27445U 02030A 25185.54655807 -.00000140 00000+0 00000+0 0 9992 2 27445 2.8380 82.3774 0003264 43.6486 258.6877 1.00272368 43001
UTC large
Height (km)
Speed (km/s)
/
Latitude / Longitude
Inclination (degrees)
Orbital Period (minutes)
Azimuth
Elevation
Range (km)
Doppler Factor

Next 0 passes for location: London (51.5072 / 0.1276)

Sorry there are no passes over London.